Location: ?????
(31.8092°N, 35.2590°E)
Time: 15:05:34
(UTC+00:00)

SL-16 R/B - Pass Details

Date: 20 June 2021
Orbit: 985 x 1007 km, 99.5° (Epoch: 01 August)

Event Time Altitude Azimuth Distance (km) Brightness Sun altitude
Exits shadow 23:46:00 70° 208° (SSW) 1,053 2.4 -27.2°
Maximum altitude 23:46:37 77° 257° (WSW) 1,022 2.4 -27.1°
Drops below altitude 10° 23:52:48 10° 343° (NNW) 2,754 5.3 -26.4°
Sets 23:55:17 0° 345° (NNW) 3,704 6.1 -26.1°
